Back to catalog

SL-24 DEB

AliveSSO
NORAD 28374·DEBRIS·🇷🇺 Russia

Launched Jun 29, 2004 from Baikonur Cosmodrome

Loading…

Next Passes (next 24 hours)

TLE

FreshSource: Space-Track

Epoch: Sep 13, 2026, 22:55 UTC

1 28374U 04025J   26256.95503256  .00002852  00000-0  32948-3 0  9997
2 28374  98.2262 231.6166 0013587  37.8670  29.7489 14.86375323185325

Track SL-24 DEB in real time with AllMySat

Download on the App Store